TimeCST,TemperatureF,Dew PointF,Humidity,Sea Level PressureIn,VisibilityMPH,Wind Direction,Wind SpeedMPH,Gust SpeedMPH,PrecipitationIn,Events,Conditions,WindDirDegrees,DateUTC
12:53 AM,25.0,17.1,72,29.83,10.0,SW,3.5,-,N/A,,Clear,230,2012-01-27 06:53:00
1:53 AM,23.0,17.1,78,29.83,10.0,Calm,Calm,-,N/A,,Clear,0,2012-01-27 07:53:00
2:53 AM,21.9,17.1,82,29.83,10.0,SSW,4.6,-,N/A,,Clear,210,2012-01-27 08:53:00
3:53 AM,19.9,16.0,85,29.83,10.0,SW,4.6,-,N/A,,Clear,230,2012-01-27 09:53:00
4:53 AM,19.9,16.0,85,29.83,10.0,SSW,6.9,-,N/A,,Clear,210,2012-01-27 10:53:00
5:53 AM,19.9,16.0,85,29.83,10.0,Calm,Calm,-,N/A,,Partly Cloudy,0,2012-01-27 11:53:00
7:53 AM,23.0,18.0,81,29.83,10.0,South,5.8,-,N/A,,Mostly Cloudy,190,2012-01-27 13:53:00
8:53 AM,24.1,19.0,81,29.82,10.0,SSW,5.8,-,N/A,,Overcast,200,2012-01-27 14:53:00
9:53 AM,28.9,21.0,72,29.81,10.0,SSW,6.9,-,N/A,,Overcast,210,2012-01-27 15:53:00
10:53 AM,33.1,19.0,56,29.81,10.0,SW,11.5,21.9,N/A,,Overcast,230,2012-01-27 16:53:00
11:53 AM,33.1,26.1,75,29.80,2.0,SSW,16.1,25.3,0.00,Snow,Light Snow,200,2012-01-27 17:53:00
11:59 AM,33.8,26.6,75,29.75,1.2,SSW,16.1,24.2,0.00,Snow,Light Snow,200,2012-01-27 17:59:00
12:09 PM,33.8,28.4,81,29.75,1.5,SSW,12.7,23.0,0.00,Snow,Light Snow,200,2012-01-27 18:09:00
12:18 PM,33.8,28.4,81,29.74,2.5,SSW,15.0,23.0,0.00,Snow,Light Snow,210,2012-01-27 18:18:00
12:32 PM,33.8,30.2,87,29.73,1.2,SSW,20.7,27.6,0.00,Snow,Light Snow,210,2012-01-27 18:32:00
12:41 PM,33.8,30.2,87,29.72,0.5,SSW,19.6,25.3,0.00,Fog-Snow,Snow,200,2012-01-27 18:41:00
12:53 PM,33.1,30.9,92,29.75,1.2,SW,12.7,23.0,0.00,Snow,Light Snow,220,2012-01-27 18:53:00
1:06 PM,33.8,30.2,87,29.71,3.0,SSW,15.0,26.5,0.00,Snow,Light Snow,210,2012-01-27 19:06:00
1:29 PM,33.8,30.2,87,29.70,4.0,SW,13.8,20.7,0.00,Snow,Light Snow,220,2012-01-27 19:29:00
1:34 PM,33.8,30.2,87,29.70,1.5,SSW,13.8,20.7,0.01,Snow,Light Snow,210,2012-01-27 19:34:00
1:50 PM,33.8,32.0,93,29.70,1.0,SSW,13.8,21.9,0.01,Snow,Light Snow,210,2012-01-27 19:50:00
1:53 PM,34.0,32.0,92,29.73,0.8,SSW,13.8,-,0.01,Snow,Light Snow,210,2012-01-27 19:53:00
2:00 PM,33.8,32.0,93,29.70,1.2,SW,10.4,20.7,0.00,Snow,Light Snow,220,2012-01-27 20:00:00
2:11 PM,33.8,32.0,93,29.70,3.0,SW,15.0,23.0,0.00,Snow,Light Snow,220,2012-01-27 20:11:00
2:41 PM,35.6,32.0,87,29.69,2.5,SW,15.0,20.7,0.00,,Overcast,230,2012-01-27 20:41:00
2:53 PM,35.1,32.0,89,29.73,3.0,WSW,12.7,-,0.00,,Overcast,240,2012-01-27 20:53:00
3:53 PM,35.1,33.1,92,29.74,8.0,West,9.2,-,N/A,,Overcast,260,2012-01-27 21:53:00
4:21 PM,35.6,30.2,81,29.72,10.0,WNW,13.8,21.9,N/A,,Overcast,290,2012-01-27 22:21:00
4:51 PM,33.8,30.2,87,29.73,10.0,WNW,13.8,-,N/A,,Overcast,290,2012-01-27 22:51:00
4:53 PM,35.1,30.0,82,29.77,10.0,WNW,15.0,24.2,N/A,,Overcast,290,2012-01-27 22:53:00
5:15 PM,35.6,28.4,75,29.75,10.0,NW,17.3,26.5,N/A,,Overcast,320,2012-01-27 23:15:00
5:53 PM,34.0,24.1,67,29.83,10.0,NW,20.7,31.1,N/A,,Overcast,320,2012-01-27 23:53:00
6:53 PM,32.0,21.9,66,29.89,10.0,NNW,13.8,25.3,N/A,,Clear,330,2012-01-28 00:53:00
7:53 PM,28.9,21.0,72,29.92,10.0,WNW,11.5,19.6,N/A,,Clear,300,2012-01-28 01:53:00
8:53 PM,26.1,17.1,69,29.94,10.0,WNW,9.2,-,N/A,,Clear,290,2012-01-28 02:53:00
9:53 PM,25.0,17.1,72,29.95,10.0,WNW,10.4,-,N/A,,Clear,290,2012-01-28 03:53:00
10:53 PM,24.1,16.0,71,29.96,10.0,West,6.9,-,N/A,,Clear,270,2012-01-28 04:53:00
11:53 PM,23.0,15.1,72,29.96,10.0,West,5.8,-,N/A,,Clear,260,2012-01-28 05:53:00